Tiempo cada hora Dahovskaya

Hoy, 13 Mayo, Jueves

Tiempo Temperatura Precipitaciones Viento Presión Humedad
00:00 +10°C° 0 mm 2 mps 716 mmHg 70%
01:00 +10°C° 0 mm 2 mps 716 mmHg 65%
02:00 +10°C° 0 mm 2 mps 716 mmHg 60%
03:00 +10°C° 0 mm 2 mps 716 mmHg 56%
04:00 +10°C° 0 mm 2 mps 716 mmHg 56%
05:00 +12°C° 0 mm 2 mps 716 mmHg 55%
06:00 +12°C° 0 mm 2 mps 716 mmHg 55%
07:00 +16°C° 0 mm 2 mps 716 mmHg 49%
08:00 +20°C° 0 mm 1 mps 717 mmHg 44%
09:00 +23°C° 0 mm 1 mps 717 mmHg 38%
10:00 +24°C° 0 mm 1 mps 717 mmHg 36%
11:00 +26°C° 0 mm 2 mps 717 mmHg 34%
12:00 +27°C° 0 mm 2 mps 717 mmHg 33%
13:00 +27°C° 0 mm 2 mps 717 mmHg 34%
14:00 +27°C° 0 mm 3 mps 717 mmHg 35%
15:00 +27°C° 0 mm 3 mps 717 mmHg 36%
16:00 +26°C° 0 mm 3 mps 717 mmHg 45%
17:00 +25°C° 0 mm 2 mps 717 mmHg 54%
18:00 +24°C° 0 mm 2 mps 717 mmHg 64%
19:00 +21°C° 0 mm 2 mps 717 mmHg 65%
20:00 +19°C° 0 mm 2 mps 717 mmHg 66%
21:00 +17°C° 0 mm 2 mps 717 mmHg 68%
22:00 +17°C° 0 mm 3 mps 717 mmHg 60%
23:00 +17°C° 0 mm 3 mps 717 mmHg 53%

Mañana, 14 Mayo, Viernes

Tiempo Temperatura Precipitaciones Viento Presión Humedad
00:00 +17°C° 0 mm 3 mps 716 mmHg 46%
01:00 +17°C° 0 mm 3 mps 716 mmHg 42%
02:00 +17°C° 0 mm 3 mps 716 mmHg 39%
03:00 +17°C° 0 mm 3 mps 717 mmHg 35%
04:00 +17°C° 0 mm 2 mps 717 mmHg 38%
05:00 +17°C° 0 mm 2 mps 717 mmHg 41%
06:00 +17°C° 0 mm 2 mps 717 mmHg 44%
07:00 +21°C° 0 mm 2 mps 717 mmHg 39%
08:00 +25°C° 0 mm 1 mps 717 mmHg 34%
09:00 +29°C° 0 mm 1 mps 717 mmHg 30%
10:00 +30°C° 0 mm 1 mps 717 mmHg 27%
11:00 +31°C° 0 mm 2 mps 717 mmHg 25%
12:00 +33°C° 0 mm 3 mps 717 mmHg 22%
13:00 +33°C° 0 mm 3 mps 717 mmHg 24%
14:00 +33°C° 0 mm 3 mps 717 mmHg 26%
15:00 +33°C° 0 mm 3 mps 717 mmHg 27%
16:00 +31°C° 0 mm 2 mps 717 mmHg 40%
17:00 +29°C° 0 mm 1 mps 716 mmHg 53%
18:00 +27°C° 0 mm 1 mps 716 mmHg 66%
19:00 +25°C° 0 mm 1 mps 716 mmHg 69%
20:00 +23°C° 0 mm 2 mps 717 mmHg 73%
21:00 +20°C° 0 mm 2 mps 717 mmHg 77%
22:00 +20°C° 0 mm 2 mps 717 mmHg 74%
23:00 +19°C° 0 mm 2 mps 717 mmHg 70%

Pasado mañana, 15 Mayo, Sábado

Tiempo Temperatura Precipitaciones Viento Presión Humedad
00:00 +19°C° 0 mm 2 mps 717 mmHg 66%
01:00 +18°C° 0 mm 2 mps 717 mmHg 66%
02:00 +18°C° 0 mm 2 mps 717 mmHg 66%
03:00 +18°C° 0 mm 2 mps 717 mmHg 66%
04:00 +19°C° 0 mm 1 mps 717 mmHg 68%
05:00 +18°C° 0 mm 1 mps 717 mmHg 71%
06:00 +18°C° 0 mm 1 mps 718 mmHg 73%
07:00 +21°C° 0 mm 1 mps 718 mmHg 67%
08:00 +23°C° 0 mm 1 mps 718 mmHg 60%
09:00 +25°C° 0 mm 1 mps 718 mmHg 53%
10:00 +26°C° 0 mm 1 mps 718 mmHg 51%
11:00 +28°C° 0 mm 2 mps 718 mmHg 49%
12:00 +29°C° 0 mm 2 mps 718 mmHg 47%
13:00 +28°C° 0.2 mm 3 mps 718 mmHg 51%
14:00 +28°C° 0.2 mm 3 mps 718 mmHg 55%
15:00 +28°C° 0.2 mm 3 mps 717 mmHg 59%
16:00 +26°C° 1 mm 3 mps 717 mmHg 67%
17:00 +25°C° 1 mm 3 mps 717 mmHg 75%
18:00 +22°C° 1 mm 3 mps 717 mmHg 83%
19:00 +21°C° 0.1 mm 3 mps 717 mmHg 84%
20:00 +19°C° 0.1 mm 2 mps 717 mmHg 86%
21:00 +18°C° 0.1 mm 2 mps 716 mmHg 87%
22:00 +17°C° 0 mm 2 mps 716 mmHg 86%
23:00 +17°C° 0 mm 2 mps 716 mmHg 85%

16 Mayo, Domingo

Tiempo Temperatura Precipitaciones Viento Presión Humedad
00:00 +17°C° 0 mm 2 mps 716 mmHg 85%
01:00 +16°C° 0 mm 2 mps 715 mmHg 84%
02:00 +16°C° 0 mm 2 mps 715 mmHg 83%
03:00 +16°C° 0 mm 1 mps 715 mmHg 82%
04:00 +18°C° 0 mm 1 mps 715 mmHg 81%
05:00 +18°C° 0 mm 1 mps 715 mmHg 80%
06:00 +19°C° 0 mm 1 mps 715 mmHg 79%
07:00 +21°C° 0 mm 1 mps 714 mmHg 70%
08:00 +24°C° 0 mm 1 mps 714 mmHg 62%
09:00 +26°C° 0 mm 1 mps 714 mmHg 53%
10:00 +27°C° 0 mm 2 mps 714 mmHg 51%
11:00 +28°C° 0 mm 2 mps 714 mmHg 49%
12:00 +29°C° 0 mm 3 mps 714 mmHg 46%
13:00 +29°C° 0 mm 3 mps 713 mmHg 48%
14:00 +29°C° 0 mm 3 mps 713 mmHg 49%
15:00 +30°C° 0 mm 3 mps 713 mmHg 51%
16:00 +29°C° 0.1 mm 3 mps 712 mmHg 58%
17:00 +28°C° 0.1 mm 2 mps 712 mmHg 66%
18:00 +27°C° 0.1 mm 2 mps 712 mmHg 74%
19:00 +25°C° 0 mm 2 mps 711 mmHg 79%
20:00 +23°C° 0 mm 2 mps 711 mmHg 84%
21:00 +20°C° 0 mm 2 mps 711 mmHg 89%
22:00 +20°C° 0 mm 2 mps 711 mmHg 85%
23:00 +19°C° 0 mm 2 mps 711 mmHg 82%

17 Mayo, Lunes

Tiempo Temperatura Precipitaciones Viento Presión Humedad
00:00 +19°C° 0 mm 2 mps 711 mmHg 78%
01:00 +19°C° 0 mm 2 mps 711 mmHg 75%
02:00 +19°C° 0 mm 2 mps 711 mmHg 72%
03:00 +20°C° 0 mm 1 mps 711 mmHg 69%
04:00 +20°C° 0 mm 1 mps 711 mmHg 71%
05:00 +20°C° 0 mm 1 mps 711 mmHg 73%
06:00 +20°C° 0 mm 1 mps 712 mmHg 75%
07:00 +22°C° 0 mm 1 mps 712 mmHg 69%
08:00 +24°C° 0 mm 2 mps 712 mmHg 63%
09:00 +26°C° 0 mm 2 mps 712 mmHg 57%
10:00 +26°C° 0.2 mm 2 mps 713 mmHg 56%
11:00 +27°C° 0.2 mm 3 mps 713 mmHg 55%
12:00 +27°C° 0.2 mm 3 mps 713 mmHg 54%
13:00 +26°C° 0.9 mm 3 mps 713 mmHg 63%
14:00 +24°C° 0.9 mm 2 mps 714 mmHg 72%
15:00 +23°C° 0.9 mm 2 mps 714 mmHg 80%
16:00 +21°C° 0.6 mm 2 mps 714 mmHg 83%
17:00 +21°C° 0.6 mm 2 mps 714 mmHg 86%
18:00 +21°C° 0.6 mm 1 mps 715 mmHg 89%
19:00 +20°C° 0.7 mm 1 mps 715 mmHg 91%
20:00 +19°C° 0.7 mm 1 mps 715 mmHg 93%
21:00 +18°C° 0.7 mm 1 mps 715 mmHg 96%
22:00 +16°C° 0.8 mm 1 mps 716 mmHg 96%
23:00 +16°C° 0.8 mm 1 mps 716 mmHg 96%

18 Mayo, Martes

Tiempo Temperatura Precipitaciones Viento Presión Humedad
00:00 +15°C° 0.8 mm 1 mps 716 mmHg 96%
01:00 +15°C° 0.6 mm 1 mps 716 mmHg 96%
02:00 +14°C° 0.6 mm 2 mps 716 mmHg 96%
03:00 +14°C° 0.6 mm 2 mps 716 mmHg 95%
04:00 +14°C° 0.1 mm 1 mps 717 mmHg 95%
05:00 +14°C° 0.1 mm 1 mps 717 mmHg 94%
06:00 +15°C° 0.1 mm 1 mps 717 mmHg 93%
07:00 +16°C° 0 mm 1 mps 718 mmHg 85%
08:00 +19°C° 0 mm 1 mps 718 mmHg 77%
09:00 +21°C° 0 mm 1 mps 718 mmHg 68%
10:00 +22°C° 0.3 mm 1 mps 719 mmHg 69%
11:00 +22°C° 0.3 mm 1 mps 719 mmHg 70%
12:00 +22°C° 0.3 mm 1 mps 719 mmHg 70%
13:00 +22°C° 0.5 mm 1 mps 719 mmHg 73%
14:00 +22°C° 0.5 mm 1 mps 719 mmHg 76%
15:00 +22°C° 0.5 mm 1 mps 719 mmHg 79%
16:00 +21°C° 0.9 mm 1 mps 719 mmHg 82%
17:00 +21°C° 0.9 mm 1 mps 719 mmHg 86%
18:00 +20°C° 0.9 mm 1 mps 719 mmHg 90%
19:00 +19°C° 0.2 mm 1 mps 719 mmHg 92%
20:00 +18°C° 0.2 mm 1 mps 719 mmHg 94%
21:00 +16°C° 0.2 mm 1 mps 719 mmHg 95%
22:00 +16°C° 0 mm 1 mps 719 mmHg 95%
23:00 +15°C° 0 mm 1 mps 719 mmHg 95%
Mostrar más

Necesitamos Su Consentimiento

Meteoprog y nuestros Proveedores de Servicios pueden almacenar y acceder a sus datos personales como cookies, identificadores de dispositivo u otras tecnologías similares de su dispositivo y procesar dichos datos para personalizar contenido y anuncios, además de ofrecer funciones de redes sociales y analizar el tráfico.

  • Almacenar y/o acceder a información en su dispositivo

    Se puede almacenar o acceder a cookies, identificadores de dispositivo u otra información de su dispositivo para los fines anteriormente indicados.

  • Anuncios y contenido personalizados, medición de anuncios y contenido, percepciones del público, y desarrollo de productos

    Los anuncios y el contenido pueden personalizarse en base a su perfil. Se pueden añadir más datos para personalizar mejor los anuncios y contenidos. Se puede medir el rendimiento de los anuncios y contenidos. Se puede obtener la percepción sobre el público que ha visto los anuncios y contenidos. Dichos datos pueden usarse para desarrollar o mejorar la experiencia del usuario, sistemas y software.

Al hacer clic en ‘Estoy De Acuerdo’ usted permitirá el uso de las cookies, identificadores de dispositivo, balizas web u otras tecnologías similares indicadas. Su configuración puede cambiarse desde el navegador de su dispositivo.

Para ciertos fines, los intereses legítimos pueden ser considerados por encima del consentimiento. Puede leer más sobre ello en nuestra Política de Privacidad y Cookies.